リニア彗星

C/2017 B3 ( LINEAR )

English version
Home page
Updated on July 2, 2021

---------------------------------------------------------------------

・ プロフィール

発見日 2017年1月26日
発見光度 19.2等
発見者 LINEAR survey (Space Surveillance Telescope, Atom Peak, White Sands Missile Range, NM, USA)

・ 写真集

・ 軌道要素

Epoch 2019 Feb. 6.0 TT = JDT 2458520.5
T 2019 Feb. 2.50425 TT                                  Rudenko
q   3.9211548            (2000.0)            P               Q
z  -0.0005374      Peri.  284.74972     +0.27591512     +0.96068826
 +/-0.0000002      Node     2.17722     -0.19811259     +0.08820107
e   1.0021071      Incl.   54.17876     -0.94054359     +0.26324635
From 1419 observations 2016 Mar. 4-2021 Jan. 13, mean residual 0".5.

・ 星図

・ 光度変化

        m1 = 5.0 + 5 logΔ + 10.0 log r(t - 200)

---------------------------------------------------------------------

軌道要素はM.P.E.C. 2021-B143に掲載されたものです。
星図はステラナビゲータ Ver.10 (アストロアーツ) で作成したものです。
光度グラフはComet for Windowsで作成したものです。

---------------------------------------------------------------------

Copyright(C) Seiichi Yoshida (comet@aerith.net). All rights reserved.